owner,sensor,date,latitude,longitude,air_pressure(mBar),qcFlag 
WAVCIS,ioos:station:WAVCIS:CSI09:1,2011-05-01T00:00:00Z,29.1015,-89.9782,1013.36,11111222 
WAVCIS,ioos:station:WAVCIS:CSI09:1,2011-05-01T01:00:00Z,29.1015,-89.9782,1013.3,11111222 
WAVCIS,ioos:station:WAVCIS:CSI09:1,2011-05-01T02:00:00Z,29.1015,-89.9782,1013.85,11111222 
WAVCIS,ioos:station:WAVCIS:CSI09:1,2011-05-01T03:00:00Z,29.1015,-89.9782,1014.01,11111222 
WAVCIS,ioos:station:WAVCIS:CSI09:1,2011-05-01T04:00:00Z,29.1015,-89.9782,1013.99,11111222 
WAVCIS,ioos:station:WAVCIS:CSI09:1,2011-05-01T05:00:00Z,29.1015,-89.9782,1014.09,11111222 
WAVCIS,ioos:station:WAVCIS:CSI09:1,2011-05-01T06:00:00Z,29.1015,-89.9782,1013.9,11111222 
WAVCIS,ioos:station:WAVCIS:CSI09:1,2011-05-01T07:00:00Z,29.1015,-89.9782,1013.35,11111222 
WAVCIS,ioos:station:WAVCIS:CSI09:1,2011-05-01T08:00:00Z,29.1015,-89.9782,1012.86,11111222 
WAVCIS,ioos:station:WAVCIS:CSI09:1,2011-05-01T09:00:00Z,29.1015,-89.9782,1012.35,11111222 
WAVCIS,ioos:station:WAVCIS:CSI09:1,2011-05-01T10:00:00Z,29.1015,-89.9782,1011.88,11111222 
WAVCIS,ioos:station:WAVCIS:CSI09:1,2011-05-01T11:00:00Z,29.1015,-89.9782,1012.44,11111222 
WAVCIS,ioos:station:WAVCIS:CSI09:1,2011-05-01T12:00:00Z,29.1015,-89.9782,1013.34,11111222 
WAVCIS,ioos:station:WAVCIS:CSI09:1,2011-05-01T13:00:00Z,29.1015,-89.9782,1013.95,11111222 
WAVCIS,ioos:station:WAVCIS:CSI09:1,2011-05-01T14:00:00Z,29.1015,-89.9782,1014.4,11111222 
WAVCIS,ioos:station:WAVCIS:CSI09:1,2011-05-01T15:00:00Z,29.1015,-89.9782,1014.81,11111222 
WAVCIS,ioos:station:WAVCIS:CSI09:1,2011-05-01T16:00:00Z,29.1015,-89.9782,1015.2,11111222 
WAVCIS,ioos:station:WAVCIS:CSI09:1,2011-05-01T17:00:00Z,29.1015,-89.9782,1015.35,11111222 
WAVCIS,ioos:station:WAVCIS:CSI09:1,2011-05-01T18:00:00Z,29.1015,-89.9782,1015.19,11111222 
WAVCIS,ioos:station:WAVCIS:CSI09:1,2011-05-01T19:00:00Z,29.1015,-89.9782,1014.77,11111222 
WAVCIS,ioos:station:WAVCIS:CSI09:1,2011-05-01T20:00:00Z,29.1015,-89.9782,1014.23,11111222 
WAVCIS,ioos:station:WAVCIS:CSI09:1,2011-05-01T21:00:00Z,29.1015,-89.9782,1013.93,11111222 
WAVCIS,ioos:station:WAVCIS:CSI09:1,2011-05-01T22:00:00Z,29.1015,-89.9782,1013.96,11111222 
WAVCIS,ioos:station:WAVCIS:CSI09:1,2011-05-01T23:00:00Z,29.1015,-89.9782,1013.96,11111222 
WAVCIS,ioos:station:WAVCIS:CSI09:1,2011-05-02T00:00:00Z,29.1015,-89.9782,1014.12,11111222 
WAVCIS,ioos:station:WAVCIS:CSI09:1,2011-05-02T01:00:00Z,29.1015,-89.9782,1014.4,11111222 
WAVCIS,ioos:station:WAVCIS:CSI09:1,2011-05-02T02:00:00Z,29.1015,-89.9782,1014.63,11111222 
WAVCIS,ioos:station:WAVCIS:CSI09:1,2011-05-02T03:00:00Z,29.1015,-89.9782,1014.69,11111222 
WAVCIS,ioos:station:WAVCIS:CSI09:1,2011-05-02T04:00:00Z,29.1015,-89.9782,1014.81,11111222 
WAVCIS,ioos:station:WAVCIS:CSI09:1,2011-05-02T05:00:00Z,29.1015,-89.9782,1014.65,11111222 
WAVCIS,ioos:station:WAVCIS:CSI09:1,2011-05-02T06:00:00Z,29.1015,-89.9782,1014.38,11111222 
WAVCIS,ioos:station:WAVCIS:CSI09:1,2011-05-02T07:00:00Z,29.1015,-89.9782,1014.23,11111222 
WAVCIS,ioos:station:WAVCIS:CSI09:1,2011-05-02T08:00:00Z,29.1015,-89.9782,1013.79,11111222 
WAVCIS,ioos:station:WAVCIS:CSI09:1,2011-05-02T09:00:00Z,29.1015,-89.9782,1013.95,11111222 
WAVCIS,ioos:station:WAVCIS:CSI09:1,2011-05-02T10:00:00Z,29.1015,-89.9782,1014.13,11111222 
WAVCIS,ioos:station:WAVCIS:CSI09:1,2011-05-02T11:00:00Z,29.1015,-89.9782,1014.35,11111222 
WAVCIS,ioos:station:WAVCIS:CSI09:1,2011-05-02T12:00:00Z,29.1015,-89.9782,1015.07,11111222 
WAVCIS,ioos:station:WAVCIS:CSI09:1,2011-05-02T13:00:00Z,29.1015,-89.9782,1015.86,11111222 
WAVCIS,ioos:station:WAVCIS:CSI09:1,2011-05-02T14:00:00Z,29.1015,-89.9782,1016.74,11111222 
WAVCIS,ioos:station:WAVCIS:CSI09:1,2011-05-02T15:00:00Z,29.1015,-89.9782,1017.42,11111222 
WAVCIS,ioos:station:WAVCIS:CSI09:1,2011-05-02T16:00:00Z,29.1015,-89.9782,1017.86,11111222 
WAVCIS,ioos:station:WAVCIS:CSI09:1,2011-05-02T17:00:00Z,29.1015,-89.9782,1017.98,11111222 
WAVCIS,ioos:station:WAVCIS:CSI09:1,2011-05-02T18:00:00Z,29.1015,-89.9782,1017.54,11111222 
WAVCIS,ioos:station:WAVCIS:CSI09:1,2011-05-02T19:00:00Z,29.1015,-89.9782,1017.35,11111222 
WAVCIS,ioos:station:WAVCIS:CSI09:1,2011-05-02T20:00:00Z,29.1015,-89.9782,1017.12,11111222 
WAVCIS,ioos:station:WAVCIS:CSI09:1,2011-05-02T21:00:00Z,29.1015,-89.9782,1016.52,11111222 
WAVCIS,ioos:station:WAVCIS:CSI09:1,2011-05-02T22:00:00Z,29.1015,-89.9782,1016.21,11111222 
WAVCIS,ioos:station:WAVCIS:CSI09:1,2011-05-02T23:00:00Z,29.1015,-89.9782,1015.95,11111222 
WAVCIS,ioos:station:WAVCIS:CSI09:1,2011-05-03T00:00:00Z,29.1015,-89.9782,1016.19,11111222 
WAVCIS,ioos:station:WAVCIS:CSI09:1,2011-05-03T01:00:00Z,29.1015,-89.9782,1016.75,11111222 
WAVCIS,ioos:station:WAVCIS:CSI09:1,2011-05-03T02:00:00Z,29.1015,-89.9782,1017.12,11111222 
WAVCIS,ioos:station:WAVCIS:CSI09:1,2011-05-03T03:00:00Z,29.1015,-89.9782,1017.47,11111222 
WAVCIS,ioos:station:WAVCIS:CSI09:1,2011-05-03T04:00:00Z,29.1015,-89.9782,1017.34,11111222 
WAVCIS,ioos:station:WAVCIS:CSI09:1,2011-05-03T05:00:00Z,29.1015,-89.9782,1016.99,11111222 
WAVCIS,ioos:station:WAVCIS:CSI09:1,2011-05-03T06:00:00Z,29.1015,-89.9782,1017.15,11111222 
WAVCIS,ioos:station:WAVCIS:CSI09:1,2011-05-03T07:00:00Z,29.1015,-89.9782,1017.11,11111222 
WAVCIS,ioos:station:WAVCIS:CSI09:1,2011-05-03T08:00:00Z,29.1015,-89.9782,1016.85,11111222 
WAVCIS,ioos:station:WAVCIS:CSI09:1,2011-05-03T09:00:00Z,29.1015,-89.9782,1016.84,11111222 
WAVCIS,ioos:station:WAVCIS:CSI09:1,2011-05-03T10:00:00Z,29.1015,-89.9782,1016.95,11111222 
WAVCIS,ioos:station:WAVCIS:CSI09:1,2011-05-03T11:00:00Z,29.1015,-89.9782,1017.03,11111222 
WAVCIS,ioos:station:WAVCIS:CSI09:1,2011-05-03T12:00:00Z,29.1015,-89.9782,1017.48,11111222 
WAVCIS,ioos:station:WAVCIS:CSI09:1,2011-05-03T13:00:00Z,29.1015,-89.9782,1018.19,11111222 
WAVCIS,ioos:station:WAVCIS:CSI09:1,2011-05-03T14:00:00Z,29.1015,-89.9782,1018.94,11111222 
WAVCIS,ioos:station:WAVCIS:CSI09:1,2011-05-03T15:00:00Z,29.1015,-89.9782,1019.25,11111222 
WAVCIS,ioos:station:WAVCIS:CSI09:1,2011-05-03T16:00:00Z,29.1015,-89.9782,1019.62,11111222 
WAVCIS,ioos:station:WAVCIS:CSI09:1,2011-05-03T17:00:00Z,29.1015,-89.9782,1019.82,11111222 
WAVCIS,ioos:station:WAVCIS:CSI09:1,2011-05-03T18:00:00Z,29.1015,-89.9782,1019.36,11111222 
WAVCIS,ioos:station:WAVCIS:CSI09:1,2011-05-03T19:00:00Z,29.1015,-89.9782,1019.39,11111222 
WAVCIS,ioos:station:WAVCIS:CSI09:1,2011-05-03T20:00:00Z,29.1015,-89.9782,1019.36,11111222 
WAVCIS,ioos:station:WAVCIS:CSI09:1,2011-05-03T21:00:00Z,29.1015,-89.9782,1019.0,11111222 
WAVCIS,ioos:station:WAVCIS:CSI09:1,2011-05-03T22:00:00Z,29.1015,-89.9782,1019.19,11111222 
WAVCIS,ioos:station:WAVCIS:CSI09:1,2011-05-03T23:00:00Z,29.1015,-89.9782,1019.93,11111222 
WAVCIS,ioos:station:WAVCIS:CSI09:1,2011-05-04T00:00:00Z,29.1015,-89.9782,1020.15,11111222 
WAVCIS,ioos:station:WAVCIS:CSI09:1,2011-05-04T01:00:00Z,29.1015,-89.9782,1020.59,11111222 
WAVCIS,ioos:station:WAVCIS:CSI09:1,2011-05-04T02:00:00Z,29.1015,-89.9782,1021.23,11111222 
WAVCIS,ioos:station:WAVCIS:CSI09:1,2011-05-04T03:00:00Z,29.1015,-89.9782,1021.88,11111222 
WAVCIS,ioos:station:WAVCIS:CSI09:1,2011-05-04T04:00:00Z,29.1015,-89.9782,1022.21,11111222 
WAVCIS,ioos:station:WAVCIS:CSI09:1,2011-05-04T05:00:00Z,29.1015,-89.9782,1022.43,11111222 
WAVCIS,ioos:station:WAVCIS:CSI09:1,2011-05-04T06:00:00Z,29.1015,-89.9782,1022.5,11111222 
WAVCIS,ioos:station:WAVCIS:CSI09:1,2011-05-04T07:00:00Z,29.1015,-89.9782,1022.24,11111222 
WAVCIS,ioos:station:WAVCIS:CSI09:1,2011-05-04T08:00:00Z,29.1015,-89.9782,1022.29,11111222 
WAVCIS,ioos:station:WAVCIS:CSI09:1,2011-05-04T09:00:00Z,29.1015,-89.9782,1022.72,11111222 
WAVCIS,ioos:station:WAVCIS:CSI09:1,2011-05-04T10:00:00Z,29.1015,-89.9782,1022.63,11111222 
WAVCIS,ioos:station:WAVCIS:CSI09:1,2011-05-04T11:00:00Z,29.1015,-89.9782,1022.99,11111222 
WAVCIS,ioos:station:WAVCIS:CSI09:1,2011-05-04T12:00:00Z,29.1015,-89.9782,1023.73,11111222 
WAVCIS,ioos:station:WAVCIS:CSI09:1,2011-05-04T13:00:00Z,29.1015,-89.9782,1024.42,11111222 
WAVCIS,ioos:station:WAVCIS:CSI09:1,2011-05-04T14:00:00Z,29.1015,-89.9782,1024.65,11111222 
WAVCIS,ioos:station:WAVCIS:CSI09:1,2011-05-04T15:00:00Z,29.1015,-89.9782,1025.0,11111222 
WAVCIS,ioos:station:WAVCIS:CSI09:1,2011-05-04T16:00:00Z,29.1015,-89.9782,1025.29,11111222 
WAVCIS,ioos:station:WAVCIS:CSI09:1,2011-05-04T17:00:00Z,29.1015,-89.9782,1025.15,11111222 
WAVCIS,ioos:station:WAVCIS:CSI09:1,2011-05-04T18:00:00Z,29.1015,-89.9782,1024.75,11111222 
WAVCIS,ioos:station:WAVCIS:CSI09:1,2011-05-04T19:00:00Z,29.1015,-89.9782,1024.3,11111222 
WAVCIS,ioos:station:WAVCIS:CSI09:1,2011-05-04T20:00:00Z,29.1015,-89.9782,1023.5,11111222 
WAVCIS,ioos:station:WAVCIS:CSI09:1,2011-05-04T21:00:00Z,29.1015,-89.9782,1023.02,11111222 
WAVCIS,ioos:station:WAVCIS:CSI09:1,2011-05-04T22:00:00Z,29.1015,-89.9782,1022.91,11111222 
WAVCIS,ioos:station:WAVCIS:CSI09:1,2011-05-04T23:00:00Z,29.1015,-89.9782,1022.73,11111222 
WAVCIS,ioos:station:WAVCIS:CSI09:1,2011-05-05T00:00:00Z,29.1015,-89.9782,1022.66,11111222 
WAVCIS,ioos:station:WAVCIS:CSI09:1,2011-05-05T01:00:00Z,29.1015,-89.9782,1022.95,11111222 
WAVCIS,ioos:station:WAVCIS:CSI09:1,2011-05-05T02:00:00Z,29.1015,-89.9782,1023.02,11111222 
WAVCIS,ioos:station:WAVCIS:CSI09:1,2011-05-05T03:00:00Z,29.1015,-89.9782,1023.13,11111222 
WAVCIS,ioos:station:WAVCIS:CSI09:1,2011-05-05T04:00:00Z,29.1015,-89.9782,1023.12,11111222 
WAVCIS,ioos:station:WAVCIS:CSI09:1,2011-05-05T05:00:00Z,29.1015,-89.9782,1022.97,11111222 
WAVCIS,ioos:station:WAVCIS:CSI09:1,2011-05-05T06:00:00Z,29.1015,-89.9782,1022.63,11111222 
WAVCIS,ioos:station:WAVCIS:CSI09:1,2011-05-05T07:00:00Z,29.1015,-89.9782,1022.01,11111222 
WAVCIS,ioos:station:WAVCIS:CSI09:1,2011-05-05T08:00:00Z,29.1015,-89.9782,1021.73,11111222 
WAVCIS,ioos:station:WAVCIS:CSI09:1,2011-05-05T09:00:00Z,29.1015,-89.9782,1021.46,11111222 
WAVCIS,ioos:station:WAVCIS:CSI09:1,2011-05-05T10:00:00Z,29.1015,-89.9782,1021.0,11111222 
WAVCIS,ioos:station:WAVCIS:CSI09:1,2011-05-05T11:00:00Z,29.1015,-89.9782,1021.22,11111222 
WAVCIS,ioos:station:WAVCIS:CSI09:1,2011-05-05T12:00:00Z,29.1015,-89.9782,1021.52,11111222 
WAVCIS,ioos:station:WAVCIS:CSI09:1,2011-05-05T13:00:00Z,29.1015,-89.9782,1021.84,11111222 
WAVCIS,ioos:station:WAVCIS:CSI09:1,2011-05-05T14:00:00Z,29.1015,-89.9782,1021.95,11111222 
WAVCIS,ioos:station:WAVCIS:CSI09:1,2011-05-05T15:00:00Z,29.1015,-89.9782,1022.09,11111222 
WAVCIS,ioos:station:WAVCIS:CSI09:1,2011-05-05T16:00:00Z,29.1015,-89.9782,1022.0,11111222 
WAVCIS,ioos:station:WAVCIS:CSI09:1,2011-05-05T17:00:00Z,29.1015,-89.9782,1021.84,11111222 
WAVCIS,ioos:station:WAVCIS:CSI09:1,2011-05-05T18:00:00Z,29.1015,-89.9782,1021.56,11111222 
WAVCIS,ioos:station:WAVCIS:CSI09:1,2011-05-05T19:00:00Z,29.1015,-89.9782,1020.69,11111222 
WAVCIS,ioos:station:WAVCIS:CSI09:1,2011-05-05T20:00:00Z,29.1015,-89.9782,1019.95,11111222 
WAVCIS,ioos:station:WAVCIS:CSI09:1,2011-05-05T21:00:00Z,29.1015,-89.9782,1019.37,11111222 
WAVCIS,ioos:station:WAVCIS:CSI09:1,2011-05-05T22:00:00Z,29.1015,-89.9782,1018.77,11111222 
WAVCIS,ioos:station:WAVCIS:CSI09:1,2011-05-05T23:00:00Z,29.1015,-89.9782,1018.5,11111222 
WAVCIS,ioos:station:WAVCIS:CSI09:1,2011-05-06T00:00:00Z,29.1015,-89.9782,1017.98,11111222 
WAVCIS,ioos:station:WAVCIS:CSI09:1,2011-05-06T01:00:00Z,29.1015,-89.9782,1018.14,11111222 
WAVCIS,ioos:station:WAVCIS:CSI09:1,2011-05-06T02:00:00Z,29.1015,-89.9782,1018.55,11111222 
WAVCIS,ioos:station:WAVCIS:CSI09:1,2011-05-06T03:00:00Z,29.1015,-89.9782,1018.6,11111222 
WAVCIS,ioos:station:WAVCIS:CSI09:1,2011-05-06T04:00:00Z,29.1015,-89.9782,1018.6,11111222 
WAVCIS,ioos:station:WAVCIS:CSI09:1,2011-05-06T05:00:00Z,29.1015,-89.9782,1018.38,11111222 
WAVCIS,ioos:station:WAVCIS:CSI09:1,2011-05-06T06:00:00Z,29.1015,-89.9782,1018.14,11111222 
WAVCIS,ioos:station:WAVCIS:CSI09:1,2011-05-06T07:00:00Z,29.1015,-89.9782,1017.58,11111222 
WAVCIS,ioos:station:WAVCIS:CSI09:1,2011-05-06T08:00:00Z,29.1015,-89.9782,1017.37,11111222 
WAVCIS,ioos:station:WAVCIS:CSI09:1,2011-05-06T09:00:00Z,29.1015,-89.9782,1017.2,11111222 
WAVCIS,ioos:station:WAVCIS:CSI09:1,2011-05-06T10:00:00Z,29.1015,-89.9782,1017.32,11111222 
WAVCIS,ioos:station:WAVCIS:CSI09:1,2011-05-06T11:00:00Z,29.1015,-89.9782,1017.01,11111222 
WAVCIS,ioos:station:WAVCIS:CSI09:1,2011-05-06T12:00:00Z,29.1015,-89.9782,1017.8,11111222 
WAVCIS,ioos:station:WAVCIS:CSI09:1,2011-05-06T13:00:00Z,29.1015,-89.9782,1018.24,11111222 
WAVCIS,ioos:station:WAVCIS:CSI09:1,2011-05-06T14:00:00Z,29.1015,-89.9782,1018.13,11111222 
WAVCIS,ioos:station:WAVCIS:CSI09:1,2011-05-06T15:00:00Z,29.1015,-89.9782,1018.45,11111222 
WAVCIS,ioos:station:WAVCIS:CSI09:1,2011-05-06T16:00:00Z,29.1015,-89.9782,1018.87,11111222 
WAVCIS,ioos:station:WAVCIS:CSI09:1,2011-05-06T17:00:00Z,29.1015,-89.9782,1018.45,11111222 
WAVCIS,ioos:station:WAVCIS:CSI09:1,2011-05-06T18:00:00Z,29.1015,-89.9782,1017.95,11111222 
WAVCIS,ioos:station:WAVCIS:CSI09:1,2011-05-06T19:00:00Z,29.1015,-89.9782,1017.4,11111222 
WAVCIS,ioos:station:WAVCIS:CSI09:1,2011-05-06T20:00:00Z,29.1015,-89.9782,1016.67,11111222 
WAVCIS,ioos:station:WAVCIS:CSI09:1,2011-05-06T21:00:00Z,29.1015,-89.9782,1015.85,11111222 
WAVCIS,ioos:station:WAVCIS:CSI09:1,2011-05-06T22:00:00Z,29.1015,-89.9782,1015.51,11111222 
WAVCIS,ioos:station:WAVCIS:CSI09:1,2011-05-06T23:00:00Z,29.1015,-89.9782,1015.36,11111222 
WAVCIS,ioos:station:WAVCIS:CSI09:1,2011-05-07T00:00:00Z,29.1015,-89.9782,1015.27,11111222 
WAVCIS,ioos:station:WAVCIS:CSI09:1,2011-05-07T01:00:00Z,29.1015,-89.9782,1015.32,11111222 
WAVCIS,ioos:station:WAVCIS:CSI09:1,2011-05-07T02:00:00Z,29.1015,-89.9782,1015.59,11111222 
WAVCIS,ioos:station:WAVCIS:CSI09:1,2011-05-07T03:00:00Z,29.1015,-89.9782,1015.73,11111222 
WAVCIS,ioos:station:WAVCIS:CSI09:1,2011-05-07T04:00:00Z,29.1015,-89.9782,1015.78,11111222 
WAVCIS,ioos:station:WAVCIS:CSI09:1,2011-05-07T05:00:00Z,29.1015,-89.9782,1015.56,11111222 
WAVCIS,ioos:station:WAVCIS:CSI09:1,2011-05-07T06:00:00Z,29.1015,-89.9782,1015.37,11111222 
WAVCIS,ioos:station:WAVCIS:CSI09:1,2011-05-07T07:00:00Z,29.1015,-89.9782,1014.94,11111222 
WAVCIS,ioos:station:WAVCIS:CSI09:1,2011-05-07T08:00:00Z,29.1015,-89.9782,1014.47,11111222 
WAVCIS,ioos:station:WAVCIS:CSI09:1,2011-05-07T09:00:00Z,29.1015,-89.9782,1014.4,11111222 
WAVCIS,ioos:station:WAVCIS:CSI09:1,2011-05-07T10:00:00Z,29.1015,-89.9782,1014.02,11111222 
WAVCIS,ioos:station:WAVCIS:CSI09:1,2011-05-07T11:00:00Z,29.1015,-89.9782,1014.5,11111222 
WAVCIS,ioos:station:WAVCIS:CSI09:1,2011-05-07T12:00:00Z,29.1015,-89.9782,1015.09,11111222 
WAVCIS,ioos:station:WAVCIS:CSI09:1,2011-05-07T13:00:00Z,29.1015,-89.9782,1015.79,11111222 
WAVCIS,ioos:station:WAVCIS:CSI09:1,2011-05-07T14:00:00Z,29.1015,-89.9782,1015.98,11111222 
WAVCIS,ioos:station:WAVCIS:CSI09:1,2011-05-07T15:00:00Z,29.1015,-89.9782,1016.21,11111222 
WAVCIS,ioos:station:WAVCIS:CSI09:1,2011-05-07T16:00:00Z,29.1015,-89.9782,1016.3,11111222 
WAVCIS,ioos:station:WAVCIS:CSI09:1,2011-05-07T17:00:00Z,29.1015,-89.9782,1016.28,11111222 
WAVCIS,ioos:station:WAVCIS:CSI09:1,2011-05-07T18:00:00Z,29.1015,-89.9782,1015.93,11111222 
WAVCIS,ioos:station:WAVCIS:CSI09:1,2011-05-07T19:00:00Z,29.1015,-89.9782,1015.38,11111222 
WAVCIS,ioos:station:WAVCIS:CSI09:1,2011-05-07T20:00:00Z,29.1015,-89.9782,1014.9,11111222 
WAVCIS,ioos:station:WAVCIS:CSI09:1,2011-05-07T21:00:00Z,29.1015,-89.9782,1014.45,11111222 
WAVCIS,ioos:station:WAVCIS:CSI09:1,2011-05-07T22:00:00Z,29.1015,-89.9782,1014.14,11111222 
WAVCIS,ioos:station:WAVCIS:CSI09:1,2011-05-07T23:00:00Z,29.1015,-89.9782,1013.83,11111222 
WAVCIS,ioos:station:WAVCIS:CSI09:1,2011-05-08T00:00:00Z,29.1015,-89.9782,1013.74,11111222 
WAVCIS,ioos:station:WAVCIS:CSI09:1,2011-05-08T01:00:00Z,29.1015,-89.9782,1014.08,11111222 
WAVCIS,ioos:station:WAVCIS:CSI09:1,2011-05-08T02:00:00Z,29.1015,-89.9782,1014.82,11111222 
WAVCIS,ioos:station:WAVCIS:CSI09:1,2011-05-08T03:00:00Z,29.1015,-89.9782,1014.42,11111222 
WAVCIS,ioos:station:WAVCIS:CSI09:1,2011-05-08T04:00:00Z,29.1015,-89.9782,1014.2,11111222 
WAVCIS,ioos:station:WAVCIS:CSI09:1,2011-05-08T05:00:00Z,29.1015,-89.9782,1014.05,11111222 
WAVCIS,ioos:station:WAVCIS:CSI09:1,2011-05-08T06:00:00Z,29.1015,-89.9782,1013.69,11111222 
WAVCIS,ioos:station:WAVCIS:CSI09:1,2011-05-08T07:00:00Z,29.1015,-89.9782,1013.27,11111222 
WAVCIS,ioos:station:WAVCIS:CSI09:1,2011-05-08T08:00:00Z,29.1015,-89.9782,1013.16,11111222 
WAVCIS,ioos:station:WAVCIS:CSI09:1,2011-05-08T09:00:00Z,29.1015,-89.9782,1013.06,11111222 
WAVCIS,ioos:station:WAVCIS:CSI09:1,2011-05-08T10:00:00Z,29.1015,-89.9782,1013.15,11111222 
WAVCIS,ioos:station:WAVCIS:CSI09:1,2011-05-08T11:00:00Z,29.1015,-89.9782,1013.36,11111222 
WAVCIS,ioos:station:WAVCIS:CSI09:1,2011-05-08T12:00:00Z,29.1015,-89.9782,1013.95,11111222 
WAVCIS,ioos:station:WAVCIS:CSI09:1,2011-05-08T13:00:00Z,29.1015,-89.9782,1014.52,11111222 
WAVCIS,ioos:station:WAVCIS:CSI09:1,2011-05-08T14:00:00Z,29.1015,-89.9782,1014.57,11111222 
WAVCIS,ioos:station:WAVCIS:CSI09:1,2011-05-08T15:00:00Z,29.1015,-89.9782,1015.05,11111222 
WAVCIS,ioos:station:WAVCIS:CSI09:1,2011-05-08T16:00:00Z,29.1015,-89.9782,1015.22,11111222 
WAVCIS,ioos:station:WAVCIS:CSI09:1,2011-05-08T17:00:00Z,29.1015,-89.9782,1015.15,11111222 
WAVCIS,ioos:station:WAVCIS:CSI09:1,2011-05-08T18:00:00Z,29.1015,-89.9782,1014.61,11111222 
WAVCIS,ioos:station:WAVCIS:CSI09:1,2011-05-08T19:00:00Z,29.1015,-89.9782,1014.22,11111222 
WAVCIS,ioos:station:WAVCIS:CSI09:1,2011-05-08T20:00:00Z,29.1015,-89.9782,1014.09,11111222 
WAVCIS,ioos:station:WAVCIS:CSI09:1,2011-05-08T21:00:00Z,29.1015,-89.9782,1013.5,11111222 
WAVCIS,ioos:station:WAVCIS:CSI09:1,2011-05-08T22:00:00Z,29.1015,-89.9782,1013.11,11111222 
WAVCIS,ioos:station:WAVCIS:CSI09:1,2011-05-08T23:00:00Z,29.1015,-89.9782,1012.95,11111222 
WAVCIS,ioos:station:WAVCIS:CSI09:1,2011-05-09T00:00:00Z,29.1015,-89.9782,1012.75,11111222 
WAVCIS,ioos:station:WAVCIS:CSI09:1,2011-05-09T01:00:00Z,29.1015,-89.9782,1012.77,11111222 
WAVCIS,ioos:station:WAVCIS:CSI09:1,2011-05-09T02:00:00Z,29.1015,-89.9782,1013.1,11111222 
WAVCIS,ioos:station:WAVCIS:CSI09:1,2011-05-09T03:00:00Z,29.1015,-89.9782,1013.14,11111222 
WAVCIS,ioos:station:WAVCIS:CSI09:1,2011-05-09T04:00:00Z,29.1015,-89.9782,1013.02,11111222 
WAVCIS,ioos:station:WAVCIS:CSI09:1,2011-05-09T05:00:00Z,29.1015,-89.9782,1012.75,11111222 
WAVCIS,ioos:station:WAVCIS:CSI09:1,2011-05-09T06:00:00Z,29.1015,-89.9782,1012.69,11111222 
WAVCIS,ioos:station:WAVCIS:CSI09:1,2011-05-09T07:00:00Z,29.1015,-89.9782,1012.62,11111222 
WAVCIS,ioos:station:WAVCIS:CSI09:1,2011-05-09T08:00:00Z,29.1015,-89.9782,1012.39,11111222 
WAVCIS,ioos:station:WAVCIS:CSI09:1,2011-05-09T09:00:00Z,29.1015,-89.9782,1012.68,11111222 
WAVCIS,ioos:station:WAVCIS:CSI09:1,2011-05-09T10:00:00Z,29.1015,-89.9782,1012.75,11111222 
WAVCIS,ioos:station:WAVCIS:CSI09:1,2011-05-09T11:00:00Z,29.1015,-89.9782,1013.24,11111222 
WAVCIS,ioos:station:WAVCIS:CSI09:1,2011-05-09T12:00:00Z,29.1015,-89.9782,1013.77,11111222 
WAVCIS,ioos:station:WAVCIS:CSI09:1,2011-05-09T13:00:00Z,29.1015,-89.9782,1014.27,11111222 
WAVCIS,ioos:station:WAVCIS:CSI09:1,2011-05-09T14:00:00Z,29.1015,-89.9782,1014.73,11111222 
WAVCIS,ioos:station:WAVCIS:CSI09:1,2011-05-09T15:00:00Z,29.1015,-89.9782,1014.79,11111222 
WAVCIS,ioos:station:WAVCIS:CSI09:1,2011-05-09T16:00:00Z,29.1015,-89.9782,1014.6,11111222 
WAVCIS,ioos:station:WAVCIS:CSI09:1,2011-05-09T17:00:00Z,29.1015,-89.9782,1014.47,11111222 
WAVCIS,ioos:station:WAVCIS:CSI09:1,2011-05-09T18:00:00Z,29.1015,-89.9782,1014.0,11111222 
WAVCIS,ioos:station:WAVCIS:CSI09:1,2011-05-09T19:00:00Z,29.1015,-89.9782,1013.76,11111222 
WAVCIS,ioos:station:WAVCIS:CSI09:1,2011-05-09T20:00:00Z,29.1015,-89.9782,1013.31,11111222 
WAVCIS,ioos:station:WAVCIS:CSI09:1,2011-05-09T21:00:00Z,29.1015,-89.9782,1012.8,11111222 
WAVCIS,ioos:station:WAVCIS:CSI09:1,2011-05-09T22:00:00Z,29.1015,-89.9782,1012.39,11111222 
WAVCIS,ioos:station:WAVCIS:CSI09:1,2011-05-09T23:00:00Z,29.1015,-89.9782,1011.86,11111222 
WAVCIS,ioos:station:WAVCIS:CSI09:1,2011-05-10T00:00:00Z,29.1015,-89.9782,1011.57,11111222 
WAVCIS,ioos:station:WAVCIS:CSI09:1,2011-05-10T01:00:00Z,29.1015,-89.9782,1011.92,11111222 
WAVCIS,ioos:station:WAVCIS:CSI09:1,2011-05-10T02:00:00Z,29.1015,-89.9782,1012.11,11111222 
WAVCIS,ioos:station:WAVCIS:CSI09:1,2011-05-10T03:00:00Z,29.1015,-89.9782,1012.58,11111222 
WAVCIS,ioos:station:WAVCIS:CSI09:1,2011-05-10T04:00:00Z,29.1015,-89.9782,1012.54,11111222 
WAVCIS,ioos:station:WAVCIS:CSI09:1,2011-05-10T05:00:00Z,29.1015,-89.9782,1012.44,11111222 
WAVCIS,ioos:station:WAVCIS:CSI09:1,2011-05-10T06:00:00Z,29.1015,-89.9782,1012.32,11111222 
WAVCIS,ioos:station:WAVCIS:CSI09:1,2011-05-10T07:00:00Z,29.1015,-89.9782,1011.66,11111222 
WAVCIS,ioos:station:WAVCIS:CSI09:1,2011-05-10T08:00:00Z,29.1015,-89.9782,1011.6,11111222 
WAVCIS,ioos:station:WAVCIS:CSI09:1,2011-05-10T09:00:00Z,29.1015,-89.9782,1011.64,11111222 
WAVCIS,ioos:station:WAVCIS:CSI09:1,2011-05-10T10:00:00Z,29.1015,-89.9782,1011.61,11111222 
WAVCIS,ioos:station:WAVCIS:CSI09:1,2011-05-10T11:00:00Z,29.1015,-89.9782,1012.0,11111222 
WAVCIS,ioos:station:WAVCIS:CSI09:1,2011-05-10T12:00:00Z,29.1015,-89.9782,1012.67,11111222 
WAVCIS,ioos:station:WAVCIS:CSI09:1,2011-05-10T13:00:00Z,29.1015,-89.9782,1012.88,11111222 
WAVCIS,ioos:station:WAVCIS:CSI09:1,2011-05-10T14:00:00Z,29.1015,-89.9782,1013.55,11111222 
WAVCIS,ioos:station:WAVCIS:CSI09:1,2011-05-10T15:00:00Z,29.1015,-89.9782,1014.29,11111222 
WAVCIS,ioos:station:WAVCIS:CSI09:1,2011-05-10T16:00:00Z,29.1015,-89.9782,1014.38,11111222 
WAVCIS,ioos:station:WAVCIS:CSI09:1,2011-05-10T17:00:00Z,29.1015,-89.9782,1014.43,11111222 
WAVCIS,ioos:station:WAVCIS:CSI09:1,2011-05-10T18:00:00Z,29.1015,-89.9782,1014.3,11111222 
WAVCIS,ioos:station:WAVCIS:CSI09:1,2011-05-10T19:00:00Z,29.1015,-89.9782,1013.78,11111222 
WAVCIS,ioos:station:WAVCIS:CSI09:1,2011-05-10T20:00:00Z,29.1015,-89.9782,1013.39,11111222 
WAVCIS,ioos:station:WAVCIS:CSI09:1,2011-05-10T21:00:00Z,29.1015,-89.9782,1012.76,11111222 
WAVCIS,ioos:station:WAVCIS:CSI09:1,2011-05-10T22:00:00Z,29.1015,-89.9782,1012.53,11111222 
WAVCIS,ioos:station:WAVCIS:CSI09:1,2011-05-10T23:00:00Z,29.1015,-89.9782,1012.48,11111222 
WAVCIS,ioos:station:WAVCIS:CSI09:1,2011-05-11T00:00:00Z,29.1015,-89.9782,1011.9,11111222 
WAVCIS,ioos:station:WAVCIS:CSI09:1,2011-05-11T01:00:00Z,29.1015,-89.9782,1011.91,11111222 
WAVCIS,ioos:station:WAVCIS:CSI09:1,2011-05-11T02:00:00Z,29.1015,-89.9782,1012.37,11111222 
WAVCIS,ioos:station:WAVCIS:CSI09:1,2011-05-11T03:00:00Z,29.1015,-89.9782,1012.48,11111222 
WAVCIS,ioos:station:WAVCIS:CSI09:1,2011-05-11T04:00:00Z,29.1015,-89.9782,1012.7,11111222 
WAVCIS,ioos:station:WAVCIS:CSI09:1,2011-05-11T05:00:00Z,29.1015,-89.9782,1012.43,11111222 
WAVCIS,ioos:station:WAVCIS:CSI09:1,2011-05-11T06:00:00Z,29.1015,-89.9782,1012.0,11111222 
WAVCIS,ioos:station:WAVCIS:CSI09:1,2011-05-11T07:00:00Z,29.1015,-89.9782,1011.66,11111222 
WAVCIS,ioos:station:WAVCIS:CSI09:1,2011-05-11T08:00:00Z,29.1015,-89.9782,1011.89,11111222 
WAVCIS,ioos:station:WAVCIS:CSI09:1,2011-05-11T09:00:00Z,29.1015,-89.9782,1012.38,11111222 
WAVCIS,ioos:station:WAVCIS:CSI09:1,2011-05-11T10:00:00Z,29.1015,-89.9782,1012.68,11111222 
WAVCIS,ioos:station:WAVCIS:CSI09:1,2011-05-11T11:00:00Z,29.1015,-89.9782,1012.53,11111222 
WAVCIS,ioos:station:WAVCIS:CSI09:1,2011-05-11T12:00:00Z,29.1015,-89.9782,1013.22,11111222 
WAVCIS,ioos:station:WAVCIS:CSI09:1,2011-05-11T13:00:00Z,29.1015,-89.9782,1013.38,11111222 
WAVCIS,ioos:station:WAVCIS:CSI09:1,2011-05-11T14:00:00Z,29.1015,-89.9782,1013.92,11111222 
WAVCIS,ioos:station:WAVCIS:CSI09:1,2011-05-11T15:00:00Z,29.1015,-89.9782,1014.41,11111222 
WAVCIS,ioos:station:WAVCIS:CSI09:1,2011-05-11T16:00:00Z,29.1015,-89.9782,1014.76,11111222 
WAVCIS,ioos:station:WAVCIS:CSI09:1,2011-05-11T17:00:00Z,29.1015,-89.9782,1015.0,11111222 
WAVCIS,ioos:station:WAVCIS:CSI09:1,2011-05-11T18:00:00Z,29.1015,-89.9782,1014.9,11111222 
WAVCIS,ioos:station:WAVCIS:CSI09:1,2011-05-11T19:00:00Z,29.1015,-89.9782,1014.55,11111222 
WAVCIS,ioos:station:WAVCIS:CSI09:1,2011-05-11T20:00:00Z,29.1015,-89.9782,1013.95,11111222 
WAVCIS,ioos:station:WAVCIS:CSI09:1,2011-05-11T21:00:00Z,29.1015,-89.9782,1013.71,11111222 
WAVCIS,ioos:station:WAVCIS:CSI09:1,2011-05-11T22:00:00Z,29.1015,-89.9782,1013.35,11111222 